Flag for Germany Weather past 2 weeks in Ravensburg, Baden-Württemberg, Germany

Now
48 °F

Light rain. Overcast.


Feels Like: 44 °F
Forecast: 46 / 50 °F
Wind: 9 mph from Southwest

Location: Friedrichshafen Airport

Current Time: Dec 18, 2014 at 4:07:33 PM

Latest Report: Dec 18, 2014 at 3:20 PM


Visibility: N/A

Pressure: 30.09 "Hg

Humidity: 87%

Dew point: 45 °F

Location of RavensburgLocation

Historic Weather in Ravensburg — Graph

°F

Ravensburg temperature yesterday

Maximum temperature yesterday: 45 °F (at 1:50 PM)
Minimum temperature yesterday: 37 °F (at 6:20 AM)
Average temperature yesterday: 41 °F

Past Weeks' High & Low Weather Summary

 TemperatureHumidityPressure
High54 °F (Dec 13, 1:50 PM)100% (Dec 6, 6:20 PM)30.42 "Hg (Dec 6, 6:20 PM)
Low25 °F (Dec 10, 1:50 AM)40% (Dec 12, 7:50 PM)29.83 "Hg (Dec 12, 7:50 PM)
Average39 °F81%30.06 "Hg
* Reported Dec 3 2:20 PM — Dec 18 2:50 PM, Ravensburg, Weather by CustomWeather, © 2014

Note: Actual official high and low records may vary slightly from our data, if they occured in-between our weather recording intervals... More about our weather records

Advertising

Ravensburg weather history for previous 24 hours

 ConditionsComfort  
Time TempWeatherWind HumidityBarometerVisibility
2:50 PM
Dec 18
46 °FRain. Mostly cloudy.7 mph93%30.09 "Hg2 mi
2:20 PM46 °FRain. Mostly cloudy.7 mph87%30.09 "Hg1 mi
1:50 PM46 °FRain. Mostly cloudy.7 mph87%30.09 "Hg2 mi
1:20 PM45 °FLight rain. Mostly cloudy.7 mph93%30.09 "Hg2 mi
12:50 PM45 °FLight rain. Fog.7 mph87%30.09 "Hg2 mi
12:20 PM45 °FSprinkles. Overcast.7 mph87%30.09 "HgN/A
11:50 AM45 °FSprinkles. Overcast.6 mph87%30.09 "HgN/A
11:20 AM45 °FDrizzle. Mostly cloudy.5 mph87%30.09 "HgN/A
10:50 AM43 °FSprinkles. Mostly cloudy.5 mph93%30.09 "Hg5 mi
10:20 AM45 °FLight rain. Mostly cloudy.5 mph81%30.09 "Hg4 mi
9:50 AM43 °FOvercast.3 mph87%30.09 "HgN/A
9:20 AM43 °FOvercast.6 mph81%30.09 "HgN/A
8:50 AM43 °FOvercast.3 mph81%30.09 "HgN/A
8:20 AM43 °FMostly cloudy.1 mph81%30.07 "HgN/A
7:50 AM43 °FMostly cloudy.2 mph81%30.07 "HgN/A
7:20 AM41 °FMostly cloudy.1 mph87%30.07 "HgN/A
6:50 AM41 °FOvercast.2 mph93%30.07 "HgN/A
6:20 AM41 °FOvercast.No wind93%30.07 "HgN/A
5:50 AM41 °FOvercast.1 mph93%30.07 "HgN/A
5:20 AM41 °FMostly cloudy.2 mph93%30.07 "HgN/A
4:20 AM43 °FMostly cloudy.5 mph87%30.07 "HgN/A
3:50 AM41 °FMostly cloudy.5 mph93%30.07 "HgN/A
3:20 AM41 °FOvercast.2 mph93%30.07 "HgN/A
2:50 AM41 °FOvercast.3 mph93%30.07 "Hg5 mi
2:20 AM41 °FQuite cool.3 mph93%30.07 "HgN/A
1:50 AM41 °FSprinkles. Mostly cloudy.3 mph93%30.04 "HgN/A
1:20 AM41 °FOvercast.6 mph93%30.04 "HgN/A
12:50 AM41 °FOvercast.7 mph93%30.04 "HgN/A
12:20 AM41 °FDrizzle. Mostly cloudy.5 mph93%30.04 "HgN/A
11:50 PM
Dec 17
41 °FDrizzle. Overcast.5 mph93%30.04 "Hg4 mi
11:20 PM41 °FDrizzle. Low clouds.3 mph87%30.04 "Hg3 mi
10:50 PM41 °FDrizzle. Fog.5 mph87%30.01 "Hg2 mi
10:20 PM41 °FDrizzle. Mostly cloudy.5 mph87%30.01 "Hg3 mi
9:50 PM41 °FDrizzle. Mostly cloudy.6 mph87%30.01 "Hg3 mi
9:20 PM41 °FDrizzle. Mostly cloudy.7 mph87%29.98 "Hg2 mi
8:50 PM41 °FDrizzle. Mostly cloudy.8 mph87%29.98 "Hg2 mi
8:20 PM41 °FDrizzle. Overcast.6 mph81%29.98 "Hg4 mi
7:50 PM39 °FLight rain. Mostly cloudy.9 mph87%29.95 "HgN/A
7:20 PM41 °FLight rain. Mostly cloudy.8 mph81%29.95 "HgN/A
6:50 PM39 °FLight rain. Overcast.7 mph87%29.95 "HgN/A
6:20 PM39 °FLight rain. Mostly cloudy.7 mph87%29.92 "HgN/A
5:50 PM39 °FRain. Overcast.12 mph87%29.92 "Hg5 mi
5:20 PM39 °FRain. Overcast.15 mph87%29.89 "Hg6 mi
4:50 PM41 °FRain. Overcast.13 mph81%29.89 "Hg4 mi
4:20 PM41 °FRain. Mostly cloudy.14 mph81%29.89 "Hg4 mi
Weather by CustomWeather, © 2014

See weather overviewHow to use our weather pages